owner,sensor,date,latitude,longitude,vertical_datum,mass_concentration_of_oxygen_in_sea_water,qcFlag 
SCCF RECON,ioos:station:SCCF:18:1,2017-02-01T00:00:00Z,26.6955,-81.8138,1.44,8.32,1111122 
SCCF RECON,ioos:station:SCCF:18:1,2017-02-01T01:00:00Z,26.6955,-81.8138,1.43,8.21,1111122 
SCCF RECON,ioos:station:SCCF:18:1,2017-02-01T02:00:00Z,26.6955,-81.8138,1.36,8.32,1111122 
SCCF RECON,ioos:station:SCCF:18:1,2017-02-01T03:00:00Z,26.6955,-81.8138,1.296,8.09,1111122 
SCCF RECON,ioos:station:SCCF:18:1,2017-02-01T04:00:00Z,26.6955,-81.8138,1.26,7.69,1111122 
SCCF RECON,ioos:station:SCCF:18:1,2017-02-01T05:00:00Z,26.6955,-81.8138,1.234,7.91,1111122 
SCCF RECON,ioos:station:SCCF:18:1,2017-02-01T06:00:00Z,26.6955,-81.8138,1.21,7.87,1111122 
SCCF RECON,ioos:station:SCCF:18:1,2017-02-01T07:00:00Z,26.6955,-81.8138,1.23,7.61,1111122 
SCCF RECON,ioos:station:SCCF:18:1,2017-02-01T08:00:00Z,26.6955,-81.8138,1.298,7.58,1111122 
SCCF RECON,ioos:station:SCCF:18:1,2017-02-01T09:00:00Z,26.6955,-81.8138,1.38,7.48,1111122 
SCCF RECON,ioos:station:SCCF:18:1,2017-02-01T10:00:00Z,26.6955,-81.8138,1.429,7.46,1111122 
SCCF RECON,ioos:station:SCCF:18:1,2017-02-01T11:00:00Z,26.6955,-81.8138,1.46,7.57,1111122 
SCCF RECON,ioos:station:SCCF:18:1,2017-02-01T12:00:00Z,26.6955,-81.8138,1.49,7.52,1111122 
SCCF RECON,ioos:station:SCCF:18:1,2017-02-01T13:00:00Z,26.6955,-81.8138,1.48,7.7,1111122 
SCCF RECON,ioos:station:SCCF:18:1,2017-02-01T14:00:00Z,26.6955,-81.8138,1.41,7.71,1111122 
SCCF RECON,ioos:station:SCCF:18:1,2017-02-01T15:00:00Z,26.6955,-81.8138,1.35,7.82,1111122 
SCCF RECON,ioos:station:SCCF:18:1,2017-02-01T16:00:00Z,26.6955,-81.8138,1.31,7.62,1111122 
SCCF RECON,ioos:station:SCCF:18:1,2017-02-01T17:00:00Z,26.6955,-81.8138,1.267,8.02,1111122 
SCCF RECON,ioos:station:SCCF:18:1,2017-02-01T18:00:00Z,26.6955,-81.8138,1.215,7.86,1111122 
SCCF RECON,ioos:station:SCCF:18:1,2017-02-01T19:00:00Z,26.6955,-81.8138,1.19,7.93,1111122 
SCCF RECON,ioos:station:SCCF:18:1,2017-02-01T20:00:00Z,26.6955,-81.8138,1.246,8.02,1111122 
SCCF RECON,ioos:station:SCCF:18:1,2017-02-01T21:00:00Z,26.6955,-81.8138,1.33,7.63,1111122 
SCCF RECON,ioos:station:SCCF:18:1,2017-02-01T22:00:00Z,26.6955,-81.8138,1.401,7.96,1111122 
SCCF RECON,ioos:station:SCCF:18:1,2017-02-01T23:00:00Z,26.6955,-81.8138,1.459,8.1,1111122 
SCCF RECON,ioos:station:SCCF:18:1,2017-02-02T00:00:00Z,26.6955,-81.8138,1.51,8.12,1111122 
SCCF RECON,ioos:station:SCCF:18:1,2017-02-02T01:00:00Z,26.6955,-81.8138,1.53,8.02,1111122 
SCCF RECON,ioos:station:SCCF:18:1,2017-02-02T02:00:00Z,26.6955,-81.8138,1.47,8.11,1111122 
SCCF RECON,ioos:station:SCCF:18:1,2017-02-02T03:00:00Z,26.6955,-81.8138,1.392,8.08,1111122 
SCCF RECON,ioos:station:SCCF:18:1,2017-02-02T04:00:00Z,26.6955,-81.8138,1.34,8.03,1111122 
SCCF RECON,ioos:station:SCCF:18:1,2017-02-02T05:00:00Z,26.6955,-81.8138,1.307,7.86,1111122 
SCCF RECON,ioos:station:SCCF:18:1,2017-02-02T06:00:00Z,26.6955,-81.8138,1.27,7.81,1111122 
SCCF RECON,ioos:station:SCCF:18:1,2017-02-02T07:00:00Z,26.6955,-81.8138,1.227,7.79,1111122 
SCCF RECON,ioos:station:SCCF:18:1,2017-02-02T08:00:00Z,26.6955,-81.8138,1.22,7.59,1111122 
SCCF RECON,ioos:station:SCCF:18:1,2017-02-02T09:00:00Z,26.6955,-81.8138,1.283,7.65,1111122 
SCCF RECON,ioos:station:SCCF:18:1,2017-02-02T10:00:00Z,26.6955,-81.8138,1.366,7.42,1111122 
SCCF RECON,ioos:station:SCCF:18:1,2017-02-02T11:00:00Z,26.6955,-81.8138,1.42,7.39,1111122 
SCCF RECON,ioos:station:SCCF:18:1,2017-02-02T12:00:00Z,26.6955,-81.8138,1.46,7.42,1111122 
SCCF RECON,ioos:station:SCCF:18:1,2017-02-02T13:00:00Z,26.6955,-81.8138,1.49,7.32,1111122 
SCCF RECON,ioos:station:SCCF:18:1,2017-02-02T14:00:00Z,26.6955,-81.8138,1.466,7.44,1111122 
SCCF RECON,ioos:station:SCCF:18:1,2017-02-02T15:00:00Z,26.6955,-81.8138,1.4,7.58,1111122 
SCCF RECON,ioos:station:SCCF:18:1,2017-02-02T16:00:00Z,26.6955,-81.8138,1.33,7.72,1111122 
SCCF RECON,ioos:station:SCCF:18:1,2017-02-02T17:00:00Z,26.6955,-81.8138,1.296,7.6,1111122 
SCCF RECON,ioos:station:SCCF:18:1,2017-02-02T18:00:00Z,26.6955,-81.8138,1.244,7.96,1111122 
SCCF RECON,ioos:station:SCCF:18:1,2017-02-02T19:00:00Z,26.6955,-81.8138,1.208,8.14,1111122 
SCCF RECON,ioos:station:SCCF:18:1,2017-02-02T20:00:00Z,26.6955,-81.8138,1.205,7.84,1111122 
SCCF RECON,ioos:station:SCCF:18:1,2017-02-02T21:00:00Z,26.6955,-81.8138,1.28,8.37,1111122 
SCCF RECON,ioos:station:SCCF:18:1,2017-02-02T22:00:00Z,26.6955,-81.8138,1.373,8.28,1111122 
SCCF RECON,ioos:station:SCCF:18:1,2017-02-02T23:00:00Z,26.6955,-81.8138,1.433,7.84,1111122 
SCCF RECON,ioos:station:SCCF:18:1,2017-02-03T00:00:00Z,26.6955,-81.8138,1.473,7.76,1111122 
SCCF RECON,ioos:station:SCCF:18:1,2017-02-03T01:00:00Z,26.6955,-81.8138,1.51,7.97,1111122 
SCCF RECON,ioos:station:SCCF:18:1,2017-02-03T02:00:00Z,26.6955,-81.8138,1.52,7.8,1111122 
SCCF RECON,ioos:station:SCCF:18:1,2017-02-03T03:00:00Z,26.6955,-81.8138,1.455,8.03,1111122 
SCCF RECON,ioos:station:SCCF:18:1,2017-02-03T04:00:00Z,26.6955,-81.8138,1.372,7.91,1111122 
SCCF RECON,ioos:station:SCCF:18:1,2017-02-03T05:00:00Z,26.6955,-81.8138,1.32,7.69,1111122 
SCCF RECON,ioos:station:SCCF:18:1,2017-02-03T06:00:00Z,26.6955,-81.8138,1.29,7.52,1111122 
SCCF RECON,ioos:station:SCCF:18:1,2017-02-03T07:00:00Z,26.6955,-81.8138,1.25,7.77,1111122 
SCCF RECON,ioos:station:SCCF:18:1,2017-02-03T08:00:00Z,26.6955,-81.8138,1.21,7.61,1111122 
SCCF RECON,ioos:station:SCCF:18:1,2017-02-03T09:00:00Z,26.6955,-81.8138,1.18,7.49,1111122 
SCCF RECON,ioos:station:SCCF:18:1,2017-02-03T10:00:00Z,26.6955,-81.8138,1.217,7.5,1111122 
SCCF RECON,ioos:station:SCCF:18:1,2017-02-03T11:00:00Z,26.6955,-81.8138,1.28,7.29,1111122 
SCCF RECON,ioos:station:SCCF:18:1,2017-02-03T12:00:00Z,26.6955,-81.8138,1.347,7.16,1111122 
SCCF RECON,ioos:station:SCCF:18:1,2017-02-03T13:00:00Z,26.6955,-81.8138,1.39,7.12,1111122 
SCCF RECON,ioos:station:SCCF:18:1,2017-02-03T14:00:00Z,26.6955,-81.8138,1.42,7.23,1111122 
SCCF RECON,ioos:station:SCCF:18:1,2017-02-03T15:00:00Z,26.6955,-81.8138,1.41,7.61,1111122 
SCCF RECON,ioos:station:SCCF:18:1,2017-02-03T16:00:00Z,26.6955,-81.8138,1.367,7.15,1111122 
SCCF RECON,ioos:station:SCCF:18:1,2017-02-03T17:00:00Z,26.6955,-81.8138,1.3,7.45,1111122 
SCCF RECON,ioos:station:SCCF:18:1,2017-02-03T18:00:00Z,26.6955,-81.8138,1.259,7.65,1111122 
SCCF RECON,ioos:station:SCCF:18:1,2017-02-03T19:00:00Z,26.6955,-81.8138,1.233,7.61,1111122 
SCCF RECON,ioos:station:SCCF:18:1,2017-02-03T20:00:00Z,26.6955,-81.8138,1.22,7.64,1111122 
SCCF RECON,ioos:station:SCCF:18:1,2017-02-03T21:00:00Z,26.6955,-81.8138,1.28,7.89,1111122 
SCCF RECON,ioos:station:SCCF:18:1,2017-02-03T22:00:00Z,26.6955,-81.8138,1.364,7.68,1111122 
SCCF RECON,ioos:station:SCCF:18:1,2017-02-03T23:00:00Z,26.6955,-81.8138,1.44,7.64,1111122 
SCCF RECON,ioos:station:SCCF:18:1,2017-02-04T00:00:00Z,26.6955,-81.8138,1.477,7.39,1111122 
SCCF RECON,ioos:station:SCCF:18:1,2017-02-04T01:00:00Z,26.6955,-81.8138,1.51,7.4,1111122 
SCCF RECON,ioos:station:SCCF:18:1,2017-02-04T02:00:00Z,26.6955,-81.8138,1.55,7.35,1111122 
SCCF RECON,ioos:station:SCCF:18:1,2017-02-04T03:00:00Z,26.6955,-81.8138,1.53,7.45,1111122 
SCCF RECON,ioos:station:SCCF:18:1,2017-02-04T04:00:00Z,26.6955,-81.8138,1.449,7.86,1111122 
SCCF RECON,ioos:station:SCCF:18:1,2017-02-04T05:00:00Z,26.6955,-81.8138,1.379,7.75,1111122 
SCCF RECON,ioos:station:SCCF:18:1,2017-02-04T06:00:00Z,26.6955,-81.8138,1.34,7.42,1111122 
SCCF RECON,ioos:station:SCCF:18:1,2017-02-04T07:00:00Z,26.6955,-81.8138,1.298,7.74,1111122 
SCCF RECON,ioos:station:SCCF:18:1,2017-02-04T08:00:00Z,26.6955,-81.8138,1.24,7.6,1111122 
SCCF RECON,ioos:station:SCCF:18:1,2017-02-04T09:00:00Z,26.6955,-81.8138,1.191,7.49,1111122 
SCCF RECON,ioos:station:SCCF:18:1,2017-02-04T10:00:00Z,26.6955,-81.8138,1.161,7.36,1111122 
SCCF RECON,ioos:station:SCCF:18:1,2017-02-04T11:00:00Z,26.6955,-81.8138,1.16,7.29,1111122 
SCCF RECON,ioos:station:SCCF:18:1,2017-02-04T12:00:00Z,26.6955,-81.8138,1.18,7.29,1111122 
SCCF RECON,ioos:station:SCCF:18:1,2017-02-04T13:00:00Z,26.6955,-81.8138,1.23,7.23,1111122 
SCCF RECON,ioos:station:SCCF:18:1,2017-02-04T14:00:00Z,26.6955,-81.8138,1.281,6.82,1111122 
SCCF RECON,ioos:station:SCCF:18:1,2017-02-04T15:00:00Z,26.6955,-81.8138,1.3,7.18,1111122 
SCCF RECON,ioos:station:SCCF:18:1,2017-02-04T16:00:00Z,26.6955,-81.8138,1.275,7.36,1111122 
SCCF RECON,ioos:station:SCCF:18:1,2017-02-04T17:00:00Z,26.6955,-81.8138,1.23,8.0,1111122 
SCCF RECON,ioos:station:SCCF:18:1,2017-02-04T18:00:00Z,26.6955,-81.8138,1.19,8.18,1111122 
SCCF RECON,ioos:station:SCCF:18:1,2017-02-04T19:00:00Z,26.6955,-81.8138,1.16,7.98,1111122 
SCCF RECON,ioos:station:SCCF:18:1,2017-02-04T20:00:00Z,26.6955,-81.8138,1.147,7.98,1111122 
SCCF RECON,ioos:station:SCCF:18:1,2017-02-04T21:00:00Z,26.6955,-81.8138,1.16,8.1,1111122 
SCCF RECON,ioos:station:SCCF:18:1,2017-02-04T22:00:00Z,26.6955,-81.8138,1.23,7.95,1111122 
SCCF RECON,ioos:station:SCCF:18:1,2017-02-04T23:00:00Z,26.6955,-81.8138,1.31,7.59,1111122 
SCCF RECON,ioos:station:SCCF:18:1,2017-02-05T00:00:00Z,26.6955,-81.8138,1.377,7.67,1111122 
SCCF RECON,ioos:station:SCCF:18:1,2017-02-05T01:00:00Z,26.6955,-81.8138,1.42,7.48,1111122 
SCCF RECON,ioos:station:SCCF:18:1,2017-02-05T02:00:00Z,26.6955,-81.8138,1.47,7.65,1111122 
SCCF RECON,ioos:station:SCCF:18:1,2017-02-05T03:00:00Z,26.6955,-81.8138,1.503,7.61,1111122 
SCCF RECON,ioos:station:SCCF:18:1,2017-02-05T04:00:00Z,26.6955,-81.8138,1.507,7.87,1111122 
SCCF RECON,ioos:station:SCCF:18:1,2017-02-05T05:00:00Z,26.6955,-81.8138,1.44,7.77,1111122 
SCCF RECON,ioos:station:SCCF:18:1,2017-02-05T06:00:00Z,26.6955,-81.8138,1.367,7.71,1111122 
SCCF RECON,ioos:station:SCCF:18:1,2017-02-05T07:00:00Z,26.6955,-81.8138,1.319,7.59,1111122 
SCCF RECON,ioos:station:SCCF:18:1,2017-02-05T08:00:00Z,26.6955,-81.8138,1.275,7.78,1111122 
SCCF RECON,ioos:station:SCCF:18:1,2017-02-05T09:00:00Z,26.6955,-81.8138,1.23,7.69,1111122 
SCCF RECON,ioos:station:SCCF:18:1,2017-02-05T10:00:00Z,26.6955,-81.8138,1.19,7.58,1111122 
SCCF RECON,ioos:station:SCCF:18:1,2017-02-05T11:00:00Z,26.6955,-81.8138,1.15,7.61,1111122 
SCCF RECON,ioos:station:SCCF:18:1,2017-02-05T12:00:00Z,26.6955,-81.8138,1.145,7.53,1111122 
SCCF RECON,ioos:station:SCCF:18:1,2017-02-05T13:00:00Z,26.6955,-81.8138,1.19,7.46,1111122 
SCCF RECON,ioos:station:SCCF:18:1,2017-02-05T14:00:00Z,26.6955,-81.8138,1.26,7.29,1111122 
SCCF RECON,ioos:station:SCCF:18:1,2017-02-05T15:00:00Z,26.6955,-81.8138,1.323,7.14,1111122 
SCCF RECON,ioos:station:SCCF:18:1,2017-02-05T16:00:00Z,26.6955,-81.8138,1.35,6.95,1111122 
SCCF RECON,ioos:station:SCCF:18:1,2017-02-05T17:00:00Z,26.6955,-81.8138,1.37,7.11,1111122 
SCCF RECON,ioos:station:SCCF:18:1,2017-02-05T18:00:00Z,26.6955,-81.8138,1.39,7.55,1111122 
SCCF RECON,ioos:station:SCCF:18:1,2017-02-05T19:00:00Z,26.6955,-81.8138,1.388,7.9,1111122 
SCCF RECON,ioos:station:SCCF:18:1,2017-02-05T20:00:00Z,26.6955,-81.8138,1.371,7.68,1111122 
SCCF RECON,ioos:station:SCCF:18:1,2017-02-05T21:00:00Z,26.6955,-81.8138,1.36,7.94,1111122 
SCCF RECON,ioos:station:SCCF:18:1,2017-02-05T22:00:00Z,26.6955,-81.8138,1.34,7.95,1111122 
SCCF RECON,ioos:station:SCCF:18:1,2017-02-05T23:00:00Z,26.6955,-81.8138,1.36,7.42,1111122 
SCCF RECON,ioos:station:SCCF:18:1,2017-02-06T00:00:00Z,26.6955,-81.8138,1.431,7.94,1111122 
SCCF RECON,ioos:station:SCCF:18:1,2017-02-06T01:00:00Z,26.6955,-81.8138,1.51,7.57,1111122 
SCCF RECON,ioos:station:SCCF:18:1,2017-02-06T02:00:00Z,26.6955,-81.8138,1.55,7.33,1111122 
SCCF RECON,ioos:station:SCCF:18:1,2017-02-06T03:00:00Z,26.6955,-81.8138,1.567,7.29,1111122 
SCCF RECON,ioos:station:SCCF:18:1,2017-02-06T04:00:00Z,26.6955,-81.8138,1.57,7.72,1111122 
SCCF RECON,ioos:station:SCCF:18:1,2017-02-06T05:00:00Z,26.6955,-81.8138,1.529,7.69,1111122 
SCCF RECON,ioos:station:SCCF:18:1,2017-02-06T06:00:00Z,26.6955,-81.8138,1.44,8.01,1111122 
SCCF RECON,ioos:station:SCCF:18:1,2017-02-06T07:00:00Z,26.6955,-81.8138,1.37,7.62,1111122 
SCCF RECON,ioos:station:SCCF:18:1,2017-02-06T08:00:00Z,26.6955,-81.8138,1.329,7.7,1111122 
SCCF RECON,ioos:station:SCCF:18:1,2017-02-06T09:00:00Z,26.6955,-81.8138,1.285,7.66,1111122 
SCCF RECON,ioos:station:SCCF:18:1,2017-02-06T10:00:00Z,26.6955,-81.8138,1.24,7.57,1111122 
SCCF RECON,ioos:station:SCCF:18:1,2017-02-06T11:00:00Z,26.6955,-81.8138,1.19,7.6,1111122 
SCCF RECON,ioos:station:SCCF:18:1,2017-02-06T12:00:00Z,26.6955,-81.8138,1.155,7.47,1111122 
SCCF RECON,ioos:station:SCCF:18:1,2017-02-06T13:00:00Z,26.6955,-81.8138,1.13,7.35,1111122 
SCCF RECON,ioos:station:SCCF:18:1,2017-02-06T14:00:00Z,26.6955,-81.8138,1.14,7.26,1111122 
SCCF RECON,ioos:station:SCCF:18:1,2017-02-06T15:00:00Z,26.6955,-81.8138,1.19,7.28,1111122 
SCCF RECON,ioos:station:SCCF:18:1,2017-02-06T16:00:00Z,26.6955,-81.8138,1.26,6.91,1111122 
SCCF RECON,ioos:station:SCCF:18:1,2017-02-06T17:00:00Z,26.6955,-81.8138,1.308,7.37,1111122 
SCCF RECON,ioos:station:SCCF:18:1,2017-02-06T18:00:00Z,26.6955,-81.8138,1.33,7.55,1111122 
SCCF RECON,ioos:station:SCCF:18:1,2017-02-06T19:00:00Z,26.6955,-81.8138,1.35,7.41,1111122 
SCCF RECON,ioos:station:SCCF:18:1,2017-02-06T20:00:00Z,26.6955,-81.8138,1.37,7.93,1111122 
SCCF RECON,ioos:station:SCCF:18:1,2017-02-06T21:00:00Z,26.6955,-81.8138,1.373,8.21,1111122 
SCCF RECON,ioos:station:SCCF:18:1,2017-02-06T22:00:00Z,26.6955,-81.8138,1.35,8.21,1111122 
SCCF RECON,ioos:station:SCCF:18:1,2017-02-06T23:00:00Z,26.6955,-81.8138,1.34,7.95,1111122 
SCCF RECON,ioos:station:SCCF:18:1,2017-02-07T00:00:00Z,26.6955,-81.8138,1.38,7.74,1111122 
SCCF RECON,ioos:station:SCCF:18:1,2017-02-07T01:00:00Z,26.6955,-81.8138,1.47,7.37,1111122 
SCCF RECON,ioos:station:SCCF:18:1,2017-02-07T02:00:00Z,26.6955,-81.8138,1.54,7.47,1111122 
SCCF RECON,ioos:station:SCCF:18:1,2017-02-07T03:00:00Z,26.6955,-81.8138,1.59,7.57,1111122 
SCCF RECON,ioos:station:SCCF:18:1,2017-02-07T04:00:00Z,26.6955,-81.8138,1.629,7.51,1111122 
SCCF RECON,ioos:station:SCCF:18:1,2017-02-07T05:00:00Z,26.6955,-81.8138,1.66,7.26,1111122 
SCCF RECON,ioos:station:SCCF:18:1,2017-02-07T06:00:00Z,26.6955,-81.8138,1.63,7.52,1111122 
SCCF RECON,ioos:station:SCCF:18:1,2017-02-07T07:00:00Z,26.6955,-81.8138,1.56,7.49,1111122 
SCCF RECON,ioos:station:SCCF:18:1,2017-02-07T08:00:00Z,26.6955,-81.8138,1.471,7.36,1111122 
SCCF RECON,ioos:station:SCCF:18:1,2017-02-07T09:00:00Z,26.6955,-81.8138,1.413,7.3,1111122 
SCCF RECON,ioos:station:SCCF:18:1,2017-02-07T10:00:00Z,26.6955,-81.8138,1.37,7.26,1111122 
SCCF RECON,ioos:station:SCCF:18:1,2017-02-07T11:00:00Z,26.6955,-81.8138,1.32,7.24,1111122 
SCCF RECON,ioos:station:SCCF:18:1,2017-02-07T12:00:00Z,26.6955,-81.8138,1.262,7.12,1111122 
SCCF RECON,ioos:station:SCCF:18:1,2017-02-07T13:00:00Z,26.6955,-81.8138,1.213,7.26,1111122 
SCCF RECON,ioos:station:SCCF:18:1,2017-02-07T14:00:00Z,26.6955,-81.8138,1.19,7.31,1111122 
SCCF RECON,ioos:station:SCCF:18:1,2017-02-07T15:00:00Z,26.6955,-81.8138,1.208,7.38,1111122 
SCCF RECON,ioos:station:SCCF:18:1,2017-02-07T16:00:00Z,26.6955,-81.8138,1.277,7.55,1111122 
SCCF RECON,ioos:station:SCCF:18:1,2017-02-07T17:00:00Z,26.6955,-81.8138,1.34,7.56,1111122 
SCCF RECON,ioos:station:SCCF:18:1,2017-02-07T18:00:00Z,26.6955,-81.8138,1.38,7.47,1111122 
SCCF RECON,ioos:station:SCCF:18:1,2017-02-07T19:00:00Z,26.6955,-81.8138,1.419,7.54,1111122 
SCCF RECON,ioos:station:SCCF:18:1,2017-02-07T20:00:00Z,26.6955,-81.8138,1.448,7.61,1111122 
SCCF RECON,ioos:station:SCCF:18:1,2017-02-07T21:00:00Z,26.6955,-81.8138,1.46,7.75,1111122 
SCCF RECON,ioos:station:SCCF:18:1,2017-02-07T22:00:00Z,26.6955,-81.8138,1.44,8.41,1111122 
SCCF RECON,ioos:station:SCCF:18:1,2017-02-07T23:00:00Z,26.6955,-81.8138,1.39,8.28,1111122 
SCCF RECON,ioos:station:SCCF:18:1,2017-02-08T00:00:00Z,26.6955,-81.8138,1.342,8.11,1111122 
SCCF RECON,ioos:station:SCCF:18:1,2017-02-08T01:00:00Z,26.6955,-81.8138,1.37,7.7,1111122 
SCCF RECON,ioos:station:SCCF:18:1,2017-02-08T02:00:00Z,26.6955,-81.8138,1.45,7.89,1111122 
SCCF RECON,ioos:station:SCCF:18:1,2017-02-08T03:00:00Z,26.6955,-81.8138,1.521,7.68,1111122 
SCCF RECON,ioos:station:SCCF:18:1,2017-02-08T04:00:00Z,26.6955,-81.8138,1.565,7.22,1111122 
SCCF RECON,ioos:station:SCCF:18:1,2017-02-08T05:00:00Z,26.6955,-81.8138,1.6,7.79,1111122 
SCCF RECON,ioos:station:SCCF:18:1,2017-02-08T06:00:00Z,26.6955,-81.8138,1.66,7.68,1111122 
SCCF RECON,ioos:station:SCCF:18:1,2017-02-08T07:00:00Z,26.6955,-81.8138,1.685,7.78,1111122 
SCCF RECON,ioos:station:SCCF:18:1,2017-02-08T08:00:00Z,26.6955,-81.8138,1.628,7.4,1111122 
SCCF RECON,ioos:station:SCCF:18:1,2017-02-08T09:00:00Z,26.6955,-81.8138,1.54,7.56,1111122 
SCCF RECON,ioos:station:SCCF:18:1,2017-02-08T10:00:00Z,26.6955,-81.8138,1.45,7.37,1111122 
SCCF RECON,ioos:station:SCCF:18:1,2017-02-08T11:00:00Z,26.6955,-81.8138,1.39,7.39,1111122 
SCCF RECON,ioos:station:SCCF:18:1,2017-02-08T12:00:00Z,26.6955,-81.8138,1.351,7.13,1111122 
SCCF RECON,ioos:station:SCCF:18:1,2017-02-08T13:00:00Z,26.6955,-81.8138,1.303,7.33,1111122 
SCCF RECON,ioos:station:SCCF:18:1,2017-02-08T14:00:00Z,26.6955,-81.8138,1.254,7.18,1111122 
SCCF RECON,ioos:station:SCCF:18:1,2017-02-08T15:00:00Z,26.6955,-81.8138,1.24,6.96,1111122 
SCCF RECON,ioos:station:SCCF:18:1,2017-02-08T16:00:00Z,26.6955,-81.8138,1.33,7.43,1111122 
SCCF RECON,ioos:station:SCCF:18:1,2017-02-08T17:00:00Z,26.6955,-81.8138,1.42,7.13,1111122 
SCCF RECON,ioos:station:SCCF:18:1,2017-02-08T18:00:00Z,26.6955,-81.8138,1.488,7.34,1111122 
SCCF RECON,ioos:station:SCCF:18:1,2017-02-08T19:00:00Z,26.6955,-81.8138,1.52,7.18,1111122 
SCCF RECON,ioos:station:SCCF:18:1,2017-02-08T20:00:00Z,26.6955,-81.8138,1.55,7.31,1111122 
SCCF RECON,ioos:station:SCCF:18:1,2017-02-08T21:00:00Z,26.6955,-81.8138,1.568,7.19,1111122 
SCCF RECON,ioos:station:SCCF:18:1,2017-02-08T22:00:00Z,26.6955,-81.8138,1.55,7.66,1111122 
SCCF RECON,ioos:station:SCCF:18:1,2017-02-08T23:00:00Z,26.6955,-81.8138,1.489,7.75,1111122 
SCCF RECON,ioos:station:SCCF:18:1,2017-02-09T00:00:00Z,26.6955,-81.8138,1.429,7.54,1111122 
SCCF RECON,ioos:station:SCCF:18:1,2017-02-09T01:00:00Z,26.6955,-81.8138,1.39,7.58,1111122 
SCCF RECON,ioos:station:SCCF:18:1,2017-02-09T02:00:00Z,26.6955,-81.8138,1.384,7.12,1111122 
SCCF RECON,ioos:station:SCCF:18:1,2017-02-09T03:00:00Z,26.6955,-81.8138,1.46,7.51,1111122 
SCCF RECON,ioos:station:SCCF:18:1,2017-02-09T04:00:00Z,26.6955,-81.8138,1.547,7.2,1111122 
SCCF RECON,ioos:station:SCCF:18:1,2017-02-09T05:00:00Z,26.6955,-81.8138,1.61,7.29,1111122 
SCCF RECON,ioos:station:SCCF:18:1,2017-02-09T06:00:00Z,26.6955,-81.8138,1.65,7.37,1111122 
SCCF RECON,ioos:station:SCCF:18:1,2017-02-09T07:00:00Z,26.6955,-81.8138,1.69,7.49,1111122 
SCCF RECON,ioos:station:SCCF:18:1,2017-02-09T08:00:00Z,26.6955,-81.8138,1.69,7.38,1111122 
SCCF RECON,ioos:station:SCCF:18:1,2017-02-09T09:00:00Z,26.6955,-81.8138,1.617,7.39,1111122 
SCCF RECON,ioos:station:SCCF:18:1,2017-02-09T10:00:00Z,26.6955,-81.8138,1.532,7.4,1111122 
SCCF RECON,ioos:station:SCCF:18:1,2017-02-09T11:00:00Z,26.6955,-81.8138,1.48,7.08,1111122 
SCCF RECON,ioos:station:SCCF:18:1,2017-02-09T12:00:00Z,26.6955,-81.8138,1.43,7.0,1111122 
SCCF RECON,ioos:station:SCCF:18:1,2017-02-09T13:00:00Z,26.6955,-81.8138,1.38,6.85,1111122 
SCCF RECON,ioos:station:SCCF:18:1,2017-02-09T14:00:00Z,26.6955,-81.8138,1.33,6.73,1111122 
SCCF RECON,ioos:station:SCCF:18:1,2017-02-09T15:00:00Z,26.6955,-81.8138,1.301,6.7,1111122 
SCCF RECON,ioos:station:SCCF:18:1,2017-02-09T16:00:00Z,26.6955,-81.8138,1.283,6.57,1111122 
SCCF RECON,ioos:station:SCCF:18:1,2017-02-09T17:00:00Z,26.6955,-81.8138,1.323,6.91,1111122 
SCCF RECON,ioos:station:SCCF:18:1,2017-02-09T18:00:00Z,26.6955,-81.8138,1.38,6.81,1111122 
SCCF RECON,ioos:station:SCCF:18:1,2017-02-09T19:00:00Z,26.6955,-81.8138,1.439,7.06,1111122 
SCCF RECON,ioos:station:SCCF:18:1,2017-02-09T20:00:00Z,26.6955,-81.8138,1.47,7.16,1111122 
SCCF RECON,ioos:station:SCCF:18:1,2017-02-09T21:00:00Z,26.6955,-81.8138,1.5,7.05,1111122 
SCCF RECON,ioos:station:SCCF:18:1,2017-02-09T22:00:00Z,26.6955,-81.8138,1.47,7.44,1111122 
SCCF RECON,ioos:station:SCCF:18:1,2017-02-09T23:00:00Z,26.6955,-81.8138,1.407,7.43,1111122 
SCCF RECON,ioos:station:SCCF:18:1,2017-02-10T00:00:00Z,26.6955,-81.8138,1.36,7.51,1111122 
SCCF RECON,ioos:station:SCCF:18:1,2017-02-10T01:00:00Z,26.6955,-81.8138,1.34,7.72,1111122 
SCCF RECON,ioos:station:SCCF:18:1,2017-02-10T02:00:00Z,26.6955,-81.8138,1.319,7.54,1111122 
SCCF RECON,ioos:station:SCCF:18:1,2017-02-10T03:00:00Z,26.6955,-81.8138,1.3,7.59,1111122 
SCCF RECON,ioos:station:SCCF:18:1,2017-02-10T04:00:00Z,26.6955,-81.8138,1.34,7.32,1111122 
SCCF RECON,ioos:station:SCCF:18:1,2017-02-10T05:00:00Z,26.6955,-81.8138,1.415,6.89,1111122 
SCCF RECON,ioos:station:SCCF:18:1,2017-02-10T06:00:00Z,26.6955,-81.8138,1.49,6.82,1111122 
SCCF RECON,ioos:station:SCCF:18:1,2017-02-10T07:00:00Z,26.6955,-81.8138,1.521,6.79,1111122 
SCCF RECON,ioos:station:SCCF:18:1,2017-02-10T08:00:00Z,26.6955,-81.8138,1.53,6.97,1111122 
SCCF RECON,ioos:station:SCCF:18:1,2017-02-10T09:00:00Z,26.6955,-81.8138,1.49,7.16,1111122 
SCCF RECON,ioos:station:SCCF:18:1,2017-02-10T10:00:00Z,26.6955,-81.8138,1.42,7.33,1111122 
SCCF RECON,ioos:station:SCCF:18:1,2017-02-10T11:00:00Z,26.6955,-81.8138,1.36,6.97,1111122 
SCCF RECON,ioos:station:SCCF:18:1,2017-02-10T12:00:00Z,26.6955,-81.8138,1.31,6.92,1111122 
SCCF RECON,ioos:station:SCCF:18:1,2017-02-10T13:00:00Z,26.6955,-81.8138,1.26,6.96,1111122 
SCCF RECON,ioos:station:SCCF:18:1,2017-02-10T14:00:00Z,26.6955,-81.8138,1.22,6.9,1111122 
SCCF RECON,ioos:station:SCCF:18:1,2017-02-10T15:00:00Z,26.6955,-81.8138,1.163,6.98,1111122 
SCCF RECON,ioos:station:SCCF:18:1,2017-02-10T16:00:00Z,26.6955,-81.8138,1.12,7.46,1111122 
SCCF RECON,ioos:station:SCCF:18:1,2017-02-10T17:00:00Z,26.6955,-81.8138,1.087,7.56,1111122 
SCCF RECON,ioos:station:SCCF:18:1,2017-02-10T18:00:00Z,26.6955,-81.8138,1.069,7.91,1111122 
SCCF RECON,ioos:station:SCCF:18:1,2017-02-10T19:00:00Z,26.6955,-81.8138,1.108,8.0,1111122 
SCCF RECON,ioos:station:SCCF:18:1,2017-02-10T20:00:00Z,26.6955,-81.8138,1.177,8.02,1111122 
SCCF RECON,ioos:station:SCCF:18:1,2017-02-10T21:00:00Z,26.6955,-81.8138,1.222,8.39,1111122 
SCCF RECON,ioos:station:SCCF:18:1,2017-02-10T22:00:00Z,26.6955,-81.8138,1.25,8.23,1111122 
SCCF RECON,ioos:station:SCCF:18:1,2017-02-10T23:00:00Z,26.6955,-81.8138,1.256,8.35,1111122 
SCCF RECON,ioos:station:SCCF:18:1,2017-02-11T00:00:00Z,26.6955,-81.8138,1.23,8.41,1111122 
SCCF RECON,ioos:station:SCCF:18:1,2017-02-11T01:00:00Z,26.6955,-81.8138,1.203,8.59,1111122 
SCCF RECON,ioos:station:SCCF:18:1,2017-02-11T02:00:00Z,26.6955,-81.8138,1.18,8.47,1111122 
SCCF RECON,ioos:station:SCCF:18:1,2017-02-11T03:00:00Z,26.6955,-81.8138,1.167,8.52,1111122 
SCCF RECON,ioos:station:SCCF:18:1,2017-02-11T04:00:00Z,26.6955,-81.8138,1.21,8.3,1111122 
SCCF RECON,ioos:station:SCCF:18:1,2017-02-11T05:00:00Z,26.6955,-81.8138,1.282,7.94,1111122 
SCCF RECON,ioos:station:SCCF:18:1,2017-02-11T06:00:00Z,26.6955,-81.8138,1.37,7.59,1111122 
SCCF RECON,ioos:station:SCCF:18:1,2017-02-11T07:00:00Z,26.6955,-81.8138,1.42,7.7,1111122 
SCCF RECON,ioos:station:SCCF:18:1,2017-02-11T08:00:00Z,26.6955,-81.8138,1.47,7.56,1111122 
SCCF RECON,ioos:station:SCCF:18:1,2017-02-11T09:00:00Z,26.6955,-81.8138,1.52,7.52,1111122 
SCCF RECON,ioos:station:SCCF:18:1,2017-02-11T10:00:00Z,26.6955,-81.8138,1.5,7.76,1111122 
SCCF RECON,ioos:station:SCCF:18:1,2017-02-11T11:00:00Z,26.6955,-81.8138,1.43,7.79,1111122 
SCCF RECON,ioos:station:SCCF:18:1,2017-02-11T12:00:00Z,26.6955,-81.8138,1.36,7.84,1111122 
SCCF RECON,ioos:station:SCCF:18:1,2017-02-11T13:00:00Z,26.6955,-81.8138,1.33,7.3,1111122 
SCCF RECON,ioos:station:SCCF:18:1,2017-02-11T14:00:00Z,26.6955,-81.8138,1.29,7.8,1111122 
SCCF RECON,ioos:station:SCCF:18:1,2017-02-11T15:00:00Z,26.6955,-81.8138,1.25,7.82,1111122 
SCCF RECON,ioos:station:SCCF:18:1,2017-02-11T16:00:00Z,26.6955,-81.8138,1.207,7.97,1111122 
SCCF RECON,ioos:station:SCCF:18:1,2017-02-11T17:00:00Z,26.6955,-81.8138,1.196,7.86,1111122 
SCCF RECON,ioos:station:SCCF:18:1,2017-02-11T18:00:00Z,26.6955,-81.8138,1.25,8.28,1111122 
SCCF RECON,ioos:station:SCCF:18:1,2017-02-11T19:00:00Z,26.6955,-81.8138,1.323,8.06,1111122 
SCCF RECON,ioos:station:SCCF:18:1,2017-02-11T20:00:00Z,26.6955,-81.8138,1.376,8.33,1111122 